Tracking 19170 objects as of 23-May-2018
HD Live streaming from Space Station
objects crossing your sky now

OSCAR 30

Track OSCAR 30 now!
10-day predictions
OSCAR 30 is classified as:


NORAD ID: 15935
Int'l Code: 1985-066A
Perigee: 1,006.7 km
Apogee: 1,258.7 km
Inclination: 90.1 °
Period: 107.8 minutes
Semi major axis: 7503 km
RCS: 1.2396 m2 (large)
Launch date: August 3, 1985
Source: United States (US)
Launch site: AIR FORCE WESTERN TEST RANGE (AFWTR)
aabbcc
Your satellite tracking list
Your tracking list is empty




NASA's NSSDC Master Catalog

Two Line Element Set (TLE):
1 15935U 85066A   18142.77869434  .00000015  00000-0  13900-4 0  9995
2 15935  90.1442  54.7776 0167937 311.8834  99.2342 13.35647241596018
Source of the keplerian elements: AFSPC